Time,TemperatureF,DewpointF,PressureIn,WindDirection,WindDirectionDegrees,WindSpeedMPH,WindSpeedGustMPH,Humidity,HourlyPrecipIn,Conditions,Clouds,dailyrainin,SoftwareType,DateUTC
2013-05-12 06:50:00,53.3,52.8,29.59,North,356,0.0,0.0,98,0.00,,,0.01,Wunderground v.1.15,2013-05-12 10:50:00,
2013-05-12 06:55:00,53.4,52.8,29.59,North,356,0.0,0.0,98,0.00,,,0.01,Wunderground v.1.15,2013-05-12 10:55:00,
2013-05-12 07:00:00,53.5,52.9,29.60,North,356,0.0,0.0,98,0.00,,,0.01,Wunderground v.1.15,2013-05-12 11:00:00,
2013-05-12 07:05:00,53.4,52.8,29.59,North,357,0.0,0.0,98,0.00,,,0.01,Wunderground v.1.15,2013-05-12 11:05:00,
2013-05-12 07:10:00,53.3,52.8,29.60,North,356,0.0,0.0,98,0.00,,,0.01,Wunderground v.1.15,2013-05-12 11:10:00,
2013-05-12 07:15:00,53.4,52.8,29.60,North,356,0.0,0.0,98,0.00,,,0.01,Wunderground v.1.15,2013-05-12 11:15:00,
2013-05-12 07:20:00,53.5,52.9,29.60,North,357,0.0,0.0,98,0.00,,,0.01,Wunderground v.1.15,2013-05-12 11:20:00,
2013-05-12 07:30:00,53.6,53.0,29.60,North,357,0.0,0.0,98,0.00,,,0.01,Wunderground v.1.15,2013-05-12 11:30:00,
2013-05-12 07:35:00,53.7,53.1,29.60,North,356,0.0,0.0,98,0.00,,,0.01,Wunderground v.1.15,2013-05-12 11:35:00,
2013-05-12 07:40:00,53.7,53.1,29.59,North,357,0.0,0.0,98,0.00,,,0.02,Wunderground v.1.15,2013-05-12 11:40:00,
2013-05-12 07:45:00,53.8,53.2,29.59,North,357,0.0,0.0,98,0.00,,,0.02,Wunderground v.1.15,2013-05-12 11:45:00,
2013-05-12 07:50:00,53.7,53.1,29.59,North,357,0.0,0.0,98,0.00,,,0.02,Wunderground v.1.15,2013-05-12 11:50:00,
2013-05-12 07:55:00,53.7,53.1,29.59,North,359,0.0,0.0,98,0.00,,,0.02,Wunderground v.1.15,2013-05-12 11:55:00,
2013-05-12 08:05:00,53.6,53.0,29.59,North,360,0.0,0.0,98,0.00,,,0.02,Wunderground v.1.15,2013-05-12 12:05:00,
2013-05-12 08:15:00,54.0,53.4,29.58,North,360,0.0,0.0,98,0.00,,,0.02,Wunderground v.1.15,2013-05-12 12:15:00,
2013-05-12 08:20:00,54.0,53.4,29.58,North,4,0.0,0.0,98,0.00,,,0.02,Wunderground v.1.15,2013-05-12 12:20:00,
2013-05-12 08:25:00,54.0,53.4,29.58,North,5,0.0,0.0,98,0.00,,,0.02,Wunderground v.1.15,2013-05-12 12:25:00,
2013-05-12 08:30:00,54.1,53.5,29.58,North,5,0.0,0.0,98,0.00,,,0.02,Wunderground v.1.15,2013-05-12 12:30:00,
2013-05-12 08:40:00,54.4,53.8,29.57,SE,128,0.0,0.0,98,0.00,,,0.02,Wunderground v.1.15,2013-05-12 12:40:00,
2013-05-12 08:45:00,54.3,53.7,29.57,SE,128,0.0,0.0,98,0.00,,,0.02,Wunderground v.1.15,2013-05-12 12:45:00,
2013-05-12 08:50:00,54.4,53.8,29.58,SE,128,0.0,0.0,98,0.00,,,0.02,Wunderground v.1.15,2013-05-12 12:50:00,
2013-05-12 08:55:00,54.6,54.0,29.58,SE,128,0.0,0.0,98,0.00,,,0.02,Wunderground v.1.15,2013-05-12 12:55:00,
2013-05-12 09:05:00,54.5,53.9,29.57,SE,128,0.0,0.0,98,0.00,,,0.02,Wunderground v.1.15,2013-05-12 13:05:00,
2013-05-12 09:15:00,54.8,54.2,29.57,SE,128,0.0,0.0,98,0.00,,,0.02,Wunderground v.1.15,2013-05-12 13:15:00,
2013-05-12 09:20:00,54.9,54.3,29.57,SE,128,0.0,0.0,98,0.00,,,0.02,Wunderground v.1.15,2013-05-12 13:20:00,
2013-05-12 09:25:00,55.3,54.7,29.57,SE,128,0.0,0.0,98,0.00,,,0.02,Wunderground v.1.15,2013-05-12 13:25:00,
2013-05-12 09:30:00,55.6,55.0,29.56,SE,128,0.0,0.0,98,0.00,,,0.02,Wunderground v.1.15,2013-05-12 13:30:00,
2013-05-12 09:35:00,55.4,54.6,29.56,NE,39,0.0,0.0,97,0.00,,,0.02,Wunderground v.1.15,2013-05-12 13:35:00,
2013-05-12 09:45:00,55.9,55.1,29.56,SSE,155,0.0,0.0,97,0.00,,,0.02,Wunderground v.1.15,2013-05-12 13:45:00,
2013-05-12 09:50:00,55.9,55.1,29.56,SSE,155,0.0,0.0,97,0.00,,,0.02,Wunderground v.1.15,2013-05-12 13:50:00,
2013-05-12 09:55:00,56.2,55.4,29.56,SSE,152,0.0,0.0,97,0.00,,,0.02,Wunderground v.1.15,2013-05-12 13:55:00,
2013-05-12 10:00:00,56.5,55.4,29.55,ESE,122,0.0,0.0,96,0.00,,,0.02,Wunderground v.1.15,2013-05-12 14:00:00,
2013-05-12 10:10:00,57.2,55.8,29.56,SE,127,0.0,0.0,95,0.00,,,0.02,Wunderground v.1.15,2013-05-12 14:10:00,
2013-05-12 10:20:00,57.6,55.6,29.56,South,172,0.0,0.0,93,0.00,,,0.02,Wunderground v.1.15,2013-05-12 14:20:00,
2013-05-12 10:25:00,57.7,55.4,29.55,SSW,195,0.0,0.0,92,0.00,,,0.02,Wunderground v.1.15,2013-05-12 14:25:00,
2013-05-12 10:30:00,58.3,56.3,29.55,SE,141,0.0,2.0,93,0.00,,,0.02,Wunderground v.1.15,2013-05-12 14:30:00,
2013-05-12 10:35:00,58.4,55.5,29.55,SSE,149,0.0,2.0,90,0.00,,,0.02,Wunderground v.1.15,2013-05-12 14:35:00,
2013-05-12 10:40:00,58.6,55.4,29.55,SE,141,0.0,0.0,89,0.00,,,0.02,Wunderground v.1.15,2013-05-12 14:40:00,
2013-05-12 10:45:00,58.4,55.2,29.55,SSE,159,0.0,0.0,89,0.00,,,0.02,Wunderground v.1.15,2013-05-12 14:45:00,
2013-05-12 10:55:00,58.2,54.7,29.55,SSW,193,0.0,1.0,88,0.00,,,0.02,Wunderground v.1.15,2013-05-12 14:55:00,
2013-05-12 11:00:00,58.0,54.5,29.55,South,176,1.0,1.0,88,0.00,,,0.02,Wunderground v.1.15,2013-05-12 15:00:00,
2013-05-12 11:10:00,57.6,54.1,29.54,SSE,162,1.0,1.0,88,0.00,,,0.02,Wunderground v.1.15,2013-05-12 15:10:00,
2013-05-12 11:15:00,57.7,54.2,29.54,SE,146,1.0,1.0,88,0.00,,,0.02,Wunderground v.1.15,2013-05-12 15:15:00,
2013-05-12 11:20:00,57.6,54.1,29.54,South,181,1.0,1.0,88,0.00,,,0.02,Wunderground v.1.15,2013-05-12 15:20:00,
2013-05-12 11:30:00,57.8,54.0,29.54,SSW,203,0.0,0.0,87,0.00,,,0.02,Wunderground v.1.15,2013-05-12 15:30:00,
2013-05-12 11:35:00,58.0,53.8,29.53,SE,131,0.0,1.0,86,0.00,,,0.02,Wunderground v.1.15,2013-05-12 15:35:00,
2013-05-12 11:40:00,58.1,53.6,29.53,SSE,152,0.0,0.0,85,0.00,,,0.02,Wunderground v.1.15,2013-05-12 15:40:00,
2013-05-12 11:45:00,58.2,54.3,29.53,SSE,148,1.0,1.0,87,0.00,,,0.02,Wunderground v.1.15,2013-05-12 15:45:00,
2013-05-12 11:50:00,58.4,52.9,29.53,SE,131,0.0,0.0,82,0.00,,,0.02,Wunderground v.1.15,2013-05-12 15:50:00,
2013-05-12 12:00:00,59.0,53.5,29.53,SE,145,0.0,0.0,82,0.00,,,0.02,Wunderground v.1.15,2013-05-12 16:00:00,
2013-05-12 12:10:00,59.1,52.9,29.52,SSW,197,0.0,0.0,80,0.00,,,0.02,Wunderground v.1.15,2013-05-12 16:10:00,
2013-05-12 12:15:00,59.2,52.3,29.52,SSE,162,0.0,0.0,78,0.00,,,0.02,Wunderground v.1.15,2013-05-12 16:15:00,
2013-05-12 12:20:00,59.4,51.8,29.52,SSW,211,0.0,0.0,76,0.00,,,0.02,Wunderground v.1.15,2013-05-12 16:20:00,
2013-05-12 12:25:00,59.5,52.6,29.52,SSE,149,0.0,0.0,78,0.00,,,0.02,Wunderground v.1.15,2013-05-12 16:25:00,
2013-05-12 12:35:00,60.0,50.2,29.51,SE,135,0.0,1.0,70,0.00,,,0.02,Wunderground v.1.15,2013-05-12 16:35:00,
2013-05-12 12:40:00,60.1,51.0,29.52,SSE,167,0.0,2.0,72,0.00,,,0.02,Wunderground v.1.15,2013-05-12 16:40:00,
2013-05-12 12:45:00,60.5,49.9,29.51,South,183,1.0,2.0,68,0.00,,,0.02,Wunderground v.1.15,2013-05-12 16:45:00,
2013-05-12 12:50:00,61.3,51.4,29.51,ESE,122,1.0,1.0,70,0.00,,,0.02,Wunderground v.1.15,2013-05-12 16:50:00,
2013-05-12 13:00:00,62.7,49.9,29.51,SE,134,2.0,4.0,63,0.00,,,0.02,Wunderground v.1.15,2013-05-12 17:00:00,
2013-05-12 13:05:00,63.0,48.4,29.51,SE,131,3.0,4.0,59,0.00,,,0.02,Wunderground v.1.15,2013-05-12 17:05:00,
2013-05-12 13:10:00,64.1,49.5,29.50,SSW,210,3.0,3.0,59,0.00,,,0.02,Wunderground v.1.15,2013-05-12 17:10:00,
2013-05-12 13:15:00,65.6,50.9,29.50,SSW,203,2.0,3.0,59,0.00,,,0.02,Wunderground v.1.15,2013-05-12 17:15:00,
2013-05-12 13:20:00,66.1,48.5,29.50,South,191,2.0,2.0,53,0.00,,,0.02,Wunderground v.1.15,2013-05-12 17:20:00,
2013-05-12 13:25:00,65.7,49.6,29.50,SSE,163,3.0,3.0,56,0.00,,,0.02,Wunderground v.1.15,2013-05-12 17:25:00,
2013-05-12 13:30:00,64.8,48.2,29.50,NW,305,4.0,4.0,55,0.00,,,0.02,Wunderground v.1.15,2013-05-12 17:30:00,
2013-05-12 13:35:00,64.3,47.8,29.50,SE,145,2.0,7.0,55,0.00,,,0.02,Wunderground v.1.15,2013-05-12 17:35:00,
2013-05-12 13:45:00,63.9,49.7,29.50,SW,224,1.0,2.0,60,0.00,,,0.02,Wunderground v.1.15,2013-05-12 17:45:00,
2013-05-12 13:55:00,63.7,46.2,29.51,East,95,1.0,1.0,53,0.00,,,0.02,Wunderground v.1.15,2013-05-12 17:55:00,
2013-05-12 14:00:00,63.3,46.9,29.51,SSE,167,2.0,2.0,55,0.00,,,0.02,Wunderground v.1.15,2013-05-12 18:00:00,
2013-05-12 14:05:00,63.3,47.8,29.50,SE,135,1.0,2.0,57,0.00,,,0.02,Wunderground v.1.15,2013-05-12 18:05:00,
2013-05-12 14:10:00,64.4,49.3,29.50,SE,145,2.0,3.0,58,0.00,,,0.02,Wunderground v.1.15,2013-05-12 18:10:00,
2013-05-12 14:20:00,65.4,48.3,29.51,West,265,3.0,3.0,54,0.00,,,0.02,Wunderground v.1.15,2013-05-12 18:20:00,
2013-05-12 14:25:00,64.7,48.2,29.50,NW,316,2.0,3.0,55,0.00,,,0.02,Wunderground v.1.15,2013-05-12 18:25:00,
2013-05-12 14:30:00,64.6,48.5,29.50,North,352,2.0,2.0,56,0.00,,,0.02,Wunderground v.1.15,2013-05-12 18:30:00,
2013-05-12 14:35:00,64.2,49.6,29.50,NW,309,2.0,2.0,59,0.00,,,0.02,Wunderground v.1.15,2013-05-12 18:35:00,
2013-05-12 14:45:00,65.0,49.4,29.50,NE,53,1.0,2.0,57,0.00,,,0.02,Wunderground v.1.15,2013-05-12 18:45:00,
2013-05-12 14:50:00,65.1,48.0,29.50,SE,125,0.0,0.0,54,0.00,,,0.02,Wunderground v.1.15,2013-05-12 18:50:00,
2013-05-12 14:55:00,64.4,45.9,29.50,SW,217,1.0,5.0,51,0.00,,,0.02,Wunderground v.1.15,2013-05-12 18:55:00,
2013-05-12 15:00:00,63.3,45.9,29.50,SW,218,2.0,2.0,53,0.00,,,0.02,Wunderground v.1.15,2013-05-12 19:00:00,
2013-05-12 15:05:00,62.7,47.2,29.50,SE,143,1.0,2.0,57,0.00,,,0.02,Wunderground v.1.15,2013-05-12 19:05:00,
2013-05-12 15:10:00,62.2,45.8,29.50,SE,146,1.0,1.0,55,0.00,,,0.02,Wunderground v.1.15,2013-05-12 19:10:00,
2013-05-12 15:15:00,63.2,48.2,29.49,NE,50,1.0,2.0,58,0.00,,,0.02,Wunderground v.1.15,2013-05-12 19:15:00,
2013-05-12 15:20:00,64.6,47.1,29.49,SSW,194,2.0,2.0,53,0.00,,,0.02,Wunderground v.1.15,2013-05-12 19:20:00,
2013-05-12 15:25:00,65.4,46.8,29.49,North,11,2.0,2.0,51,0.00,,,0.02,Wunderground v.1.15,2013-05-12 19:25:00,
2013-05-12 15:30:00,66.0,46.3,29.49,SSW,210,2.0,3.0,49,0.00,,,0.02,Wunderground v.1.15,2013-05-12 19:30:00,
2013-05-12 15:35:00,65.2,44.5,29.49,ESE,115,3.0,5.0,47,0.00,,,0.02,Wunderground v.1.15,2013-05-12 19:35:00,
2013-05-12 15:45:00,64.3,43.6,29.49,SW,231,3.0,3.0,47,0.00,,,0.02,Wunderground v.1.15,2013-05-12 19:45:00,
2013-05-12 15:50:00,63.7,44.2,29.49,NNE,27,3.0,3.0,49,0.00,,,0.02,Wunderground v.1.15,2013-05-12 19:50:00,
2013-05-12 16:00:00,62.4,44.0,29.50,East,94,4.0,4.0,51,0.00,,,0.02,Wunderground v.1.15,2013-05-12 20:00:00,
2013-05-12 16:05:00,61.8,43.5,29.50,South,171,3.0,8.0,51,0.00,,,0.02,Wunderground v.1.15,2013-05-12 20:05:00,
2013-05-12 16:10:00,61.6,42.8,29.50,SW,217,2.0,3.0,50,0.00,,,0.02,Wunderground v.1.15,2013-05-12 20:10:00,
2013-05-12 16:15:00,61.7,42.9,29.50,NNW,327,2.0,3.0,50,0.00,,,0.02,Wunderground v.1.15,2013-05-12 20:15:00,
2013-05-12 16:20:00,61.6,42.8,29.50,SSE,152,2.0,11.0,50,0.00,,,0.02,Wunderground v.1.15,2013-05-12 20:20:00,
2013-05-12 16:25:00,61.6,44.8,29.51,WNW,291,3.0,11.0,54,0.00,,,0.02,Wunderground v.1.15,2013-05-12 20:25:00,
2013-05-12 16:35:00,62.4,45.5,29.51,SE,135,2.0,5.0,54,0.00,,,0.02,Wunderground v.1.15,2013-05-12 20:35:00,
2013-05-12 16:40:00,62.4,45.5,29.51,SE,128,2.0,2.0,54,0.00,,,0.02,Wunderground v.1.15,2013-05-12 20:40:00,
2013-05-12 16:50:00,61.4,43.6,29.51,NW,325,3.0,4.0,52,0.00,,,0.02,Wunderground v.1.15,2013-05-12 20:50:00,
2013-05-12 16:55:00,61.3,45.0,29.51,SSW,207,2.0,4.0,55,0.00,,,0.02,Wunderground v.1.15,2013-05-12 20:55:00,
2013-05-12 17:05:00,61.0,43.2,29.51,WNW,288,1.0,2.0,52,0.00,,,0.02,Wunderground v.1.15,2013-05-12 21:05:00,
2013-05-12 17:10:00,60.7,43.0,29.52,South,179,2.0,2.0,52,0.00,,,0.02,Wunderground v.1.15,2013-05-12 21:10:00,
2013-05-12 17:15:00,60.4,43.7,29.52,NW,312,2.0,3.0,54,0.00,,,0.02,Wunderground v.1.15,2013-05-12 21:15:00,
2013-05-12 17:25:00,60.1,44.3,29.52,SSE,150,2.0,2.0,56,0.00,,,0.02,Wunderground v.1.15,2013-05-12 21:25:00,
2013-05-12 17:30:00,60.0,44.7,29.53,NW,325,2.0,7.0,57,0.00,,,0.02,Wunderground v.1.15,2013-05-12 21:30:00,
2013-05-12 17:35:00,59.5,44.7,29.53,SE,135,2.0,7.0,58,0.00,,,0.02,Wunderground v.1.15,2013-05-12 21:35:00,
2013-05-12 17:45:00,57.9,45.4,29.54,WNW,299,3.0,7.0,63,0.00,,,0.02,Wunderground v.1.15,2013-05-12 21:45:00,
2013-05-12 17:50:00,57.1,45.4,29.55,East,84,3.0,3.0,65,0.00,,,0.02,Wunderground v.1.15,2013-05-12 21:50:00,
2013-05-12 17:55:00,56.7,45.5,29.55,WNW,303,2.0,4.0,66,0.00,,,0.02,Wunderground v.1.15,2013-05-12 21:55:00,
2013-05-12 18:05:00,55.4,45.4,29.55,North,359,3.0,4.0,69,0.00,,,0.02,Wunderground v.1.15,2013-05-12 22:05:00,
2013-05-12 18:10:00,55.1,44.3,29.56,South,186,2.0,3.0,67,0.00,,,0.02,Wunderground v.1.15,2013-05-12 22:10:00,
2013-05-12 18:20:00,54.5,44.9,29.56,East,96,2.0,2.0,70,0.00,,,0.02,Wunderground v.1.15,2013-05-12 22:20:00,
2013-05-12 18:25:00,54.2,44.2,29.57,SSW,203,2.0,2.0,69,0.00,,,0.02,Wunderground v.1.15,2013-05-12 22:25:00,
2013-05-12 18:30:00,53.9,43.2,29.57,WNW,300,3.0,4.0,67,0.00,,,0.02,Wunderground v.1.15,2013-05-12 22:30:00,
2013-05-12 18:40:00,53.6,43.3,29.57,NNW,330,2.0,7.0,68,0.00,,,0.02,Wunderground v.1.15,2013-05-12 22:40:00,
2013-05-12 18:45:00,53.4,43.5,29.57,NE,54,2.0,7.0,69,0.00,,,0.02,Wunderground v.1.15,2013-05-12 22:45:00,
2013-05-12 18:55:00,52.7,41.7,29.58,SSE,164,3.0,4.0,66,0.00,,,0.02,Wunderground v.1.15,2013-05-12 22:55:00,
2013-05-12 19:00:00,52.4,40.6,29.58,NW,325,3.0,3.0,64,0.00,,,0.02,Wunderground v.1.15,2013-05-12 23:00:00,
2013-05-12 19:10:00,52.1,37.8,29.58,WNW,297,2.0,3.0,58,0.00,,,0.02,Wunderground v.1.15,2013-05-12 23:10:00,
2013-05-12 19:15:00,52.1,38.2,29.58,North,354,3.0,5.0,59,0.00,,,0.02,Wunderground v.1.15,2013-05-12 23:15:00,
2013-05-12 19:20:00,52.1,38.6,29.58,NE,37,5.0,5.0,60,0.00,,,0.02,Wunderground v.1.15,2013-05-12 23:20:00,
2013-05-12 19:30:00,51.5,38.5,29.59,ESE,103,4.0,4.0,61,0.00,,,0.02,Wunderground v.1.15,2013-05-12 23:30:00,
2013-05-12 19:35:00,51.0,38.0,29.59,NNW,347,4.0,4.0,61,0.00,,,0.02,Wunderground v.1.15,2013-05-12 23:35:00,
2013-05-12 19:45:00,50.3,37.8,29.59,ESE,105,3.0,3.0,62,0.00,,,0.02,Wunderground v.1.15,2013-05-12 23:45:00,
2013-05-12 19:50:00,50.0,37.5,29.59,North,9,2.0,2.0,62,0.00,,,0.02,Wunderground v.1.15,2013-05-12 23:50:00,
2013-05-12 19:55:00,49.8,37.3,29.59,East,91,1.0,2.0,62,0.00,,,0.02,Wunderground v.1.15,2013-05-12 23:55:00,
2013-05-12 20:05:00,49.5,36.2,29.60,ESE,106,1.0,2.0,60,0.00,,,0.02,Wunderground v.1.15,2013-05-13 00:05:00,
2013-05-12 20:10:00,49.5,35.8,29.60,SSE,158,1.0,1.0,59,0.00,,,0.02,Wunderground v.1.15,2013-05-13 00:10:00,
2013-05-12 20:20:00,49.1,34.9,29.61,SSW,207,1.0,1.0,58,0.00,,,0.02,Wunderground v.1.15,2013-05-13 00:20:00,
2013-05-12 20:25:00,49.3,33.8,29.61,SSW,207,1.0,1.0,55,0.00,,,0.02,Wunderground v.1.15,2013-05-13 00:25:00,
2013-05-12 20:30:00,49.1,33.6,29.61,ESE,117,1.0,2.0,55,0.00,,,0.02,Wunderground v.1.15,2013-05-13 00:30:00,
2013-05-12 20:40:00,48.7,33.7,29.62,SE,146,1.0,1.0,56,0.00,,,0.02,Wunderground v.1.15,2013-05-13 00:40:00,
2013-05-12 20:45:00,48.7,33.2,29.63,SE,145,0.0,2.0,55,0.00,,,0.02,Wunderground v.1.15,2013-05-13 00:45:00,
2013-05-12 20:55:00,48.1,34.9,29.63,NW,314,1.0,1.0,60,0.00,,,0.02,Wunderground v.1.15,2013-05-13 00:55:00,
2013-05-12 21:00:00,47.4,36.2,29.64,NNW,335,0.0,1.0,65,0.00,,,0.02,Wunderground v.1.15,2013-05-13 01:00:00,
2013-05-12 21:05:00,46.3,37.4,29.64,NNW,335,0.0,1.0,71,0.00,,,0.02,Wunderground v.1.15,2013-05-13 01:05:00,
2013-05-12 21:15:00,45.1,36.3,29.64,NNW,330,1.0,2.0,71,0.00,,,0.02,Wunderground v.1.15,2013-05-13 01:15:00,
2013-05-12 21:20:00,44.7,35.5,29.64,NNW,330,1.0,1.0,70,0.00,,,0.02,Wunderground v.1.15,2013-05-13 01:20:00,
2013-05-12 21:30:00,43.9,36.1,29.65,NNW,347,1.0,1.0,74,0.00,,,0.02,Wunderground v.1.15,2013-05-13 01:30:00,
2013-05-12 21:35:00,44.2,36.1,29.65,West,278,1.0,1.0,73,0.00,,,0.02,Wunderground v.1.15,2013-05-13 01:35:00,
2013-05-12 21:40:00,43.9,35.8,29.65,NNW,343,0.0,0.0,73,0.00,,,0.02,Wunderground v.1.15,2013-05-13 01:40:00,
2013-05-12 21:50:00,43.7,36.0,29.65,SE,138,0.0,0.0,74,0.00,,,0.02,Wunderground v.1.15,2013-05-13 01:50:00,
2013-05-12 21:55:00,43.4,36.7,29.65,SE,136,0.0,0.0,77,0.00,,,0.02,Wunderground v.1.15,2013-05-13 01:55:00,
2013-05-12 22:05:00,42.3,36.9,29.66,North,356,0.0,1.0,81,0.00,,,0.02,Wunderground v.1.15,2013-05-13 02:05:00,
2013-05-12 22:10:00,41.9,36.8,29.66,NNW,340,1.0,1.0,82,0.00,,,0.02,Wunderground v.1.15,2013-05-13 02:10:00,
2013-05-12 22:15:00,41.8,36.1,29.66,North,352,1.0,1.0,80,0.00,,,0.02,Wunderground v.1.15,2013-05-13 02:15:00,
2013-05-12 22:25:00,42.0,35.3,29.67,NNW,334,1.0,2.0,77,0.00,,,0.02,Wunderground v.1.15,2013-05-13 02:25:00,
2013-05-12 22:30:00,42.0,36.0,29.67,North,360,1.0,1.0,79,0.00,,,0.02,Wunderground v.1.15,2013-05-13 02:30:00,
2013-05-12 22:40:00,41.4,36.0,29.67,NNW,347,0.0,0.0,81,0.00,,,0.02,Wunderground v.1.15,2013-05-13 02:40:00,